Back to catalog

BEIJING 1

TSINGHUA

AliveScienceSSO
NORAD 28890·PAYLOAD·🇨🇳 China

Launched Oct 27, 2005 from Plesetsk Cosmodrome

Loading…

Next Passes (next 24 hours)

TLE

FreshSource: Space-Track

Epoch: Sep 14, 2026, 15:26 UTC

1 28890U 05043A   26257.64349325  .00000278  00000-0  63077-4 0  9991
2 28890  98.3044  31.4178 0014813   7.0780 353.0628 14.63576788113737

Track BEIJING 1 in real time with AllMySat

Download on the App Store